TimeCDT,TemperatureF,Dew PointF,Humidity,Sea Level PressureIn,VisibilityMPH,Wind Direction,Wind SpeedMPH,Gust SpeedMPH,PrecipitationIn,Events,Conditions,WindDirDegrees,DateUTC
12:15 AM,67.6,43.5,42,30.19,10.0,South,9.2,-,N/A,,Clear,180,2013-05-13 05:15:00
12:35 AM,67.3,42.8,41,30.19,10.0,South,9.2,-,N/A,,Clear,180,2013-05-13 05:35:00
12:55 AM,66.4,43.3,43,30.19,10.0,South,8.1,-,N/A,,Clear,170,2013-05-13 05:55:00
1:15 AM,65.7,43.5,45,30.18,10.0,South,10.4,-,N/A,,Clear,170,2013-05-13 06:15:00
1:35 AM,65.5,42.8,44,30.18,10.0,South,9.2,-,N/A,,Clear,180,2013-05-13 06:35:00
1:55 AM,64.9,42.3,44,30.18,10.0,South,10.4,-,N/A,,Clear,170,2013-05-13 06:55:00
2:15 AM,64.4,41.9,44,30.18,10.0,South,8.1,-,N/A,,Clear,190,2013-05-13 07:15:00
2:35 AM,64.8,41.0,42,30.17,10.0,South,11.5,-,N/A,,Clear,190,2013-05-13 07:35:00
2:55 AM,65.1,40.6,41,30.17,10.0,South,12.7,-,N/A,,Clear,190,2013-05-13 07:55:00
3:15 AM,64.2,41.2,43,30.17,10.0,South,10.4,-,N/A,,Clear,190,2013-05-13 08:15:00
3:35 AM,63.5,41.5,45,30.17,10.0,South,8.1,-,N/A,,Clear,190,2013-05-13 08:35:00
3:55 AM,62.8,42.1,47,30.17,10.0,SSW,6.9,-,N/A,,Clear,210,2013-05-13 08:55:00
4:15 AM,61.7,42.8,50,30.17,10.0,SSW,8.1,-,N/A,,Clear,200,2013-05-13 09:15:00
4:35 AM,62.6,42.8,48,30.17,10.0,SSW,10.4,-,N/A,,Clear,200,2013-05-13 09:35:00
4:55 AM,62.1,42.8,49,30.17,10.0,SSW,9.2,-,N/A,,Clear,200,2013-05-13 09:55:00
5:15 AM,62.2,42.6,49,30.17,10.0,SSW,9.2,-,N/A,,Clear,200,2013-05-13 10:15:00
5:35 AM,61.7,43.0,50,30.17,10.0,South,9.2,-,N/A,,Clear,190,2013-05-13 10:35:00
5:55 AM,61.0,43.7,53,30.17,10.0,South,8.1,-,N/A,,Clear,190,2013-05-13 10:55:00
6:15 AM,61.2,43.3,52,30.18,10.0,South,6.9,-,N/A,,Clear,180,2013-05-13 11:15:00
6:35 AM,59.9,43.7,55,30.18,10.0,South,8.1,-,N/A,,Clear,180,2013-05-13 11:35:00
6:55 AM,60.3,43.5,54,30.19,10.0,South,5.8,-,N/A,,Clear,170,2013-05-13 11:55:00
7:15 AM,59.9,44.1,56,30.20,10.0,South,5.8,-,N/A,,Clear,180,2013-05-13 12:15:00
7:35 AM,61.5,44.4,53,30.20,10.0,South,3.5,-,N/A,,Clear,180,2013-05-13 12:35:00
7:55 AM,64.0,45.1,50,30.21,10.0,Calm,Calm,-,N/A,,Clear,0,2013-05-13 12:55:00
8:15 AM,66.4,43.5,44,30.22,10.0,SW,3.5,-,N/A,,Clear,220,2013-05-13 13:15:00
8:35 AM,67.5,43.7,42,30.22,10.0,SW,4.6,-,N/A,,Clear,230,2013-05-13 13:35:00
8:55 AM,69.8,44.1,39,30.23,10.0,SW,8.1,-,N/A,,Clear,230,2013-05-13 13:55:00
9:15 AM,72.3,44.4,37,30.23,10.0,SW,12.7,-,N/A,,Clear,230,2013-05-13 14:15:00
9:35 AM,74.3,45.0,35,30.23,10.0,WSW,13.8,-,N/A,,Clear,250,2013-05-13 14:35:00
9:55 AM,76.1,45.0,33,30.24,10.0,WSW,12.7,18.4,N/A,,Clear,240,2013-05-13 14:55:00
10:15 AM,77.4,45.1,32,30.23,10.0,WSW,11.5,-,N/A,,Clear,250,2013-05-13 15:15:00
10:35 AM,79.2,45.3,30,30.23,10.0,SW,9.2,-,N/A,,Clear,220,2013-05-13 15:35:00
10:55 AM,80.6,45.0,28,30.23,10.0,SW,8.1,-,N/A,,Clear,220,2013-05-13 15:55:00
11:15 AM,82.2,44.6,27,30.23,10.0,West,11.5,16.1,N/A,,Clear,270,2013-05-13 16:15:00
11:35 AM,83.3,42.1,23,30.23,10.0,West,15.0,20.7,N/A,,Clear,260,2013-05-13 16:35:00
11:55 AM,84.0,41.7,22,30.23,10.0,WSW,11.5,19.6,N/A,,Clear,250,2013-05-13 16:55:00
12:15 PM,85.6,41.9,21,30.22,10.0,WSW,15.0,18.4,N/A,,Clear,240,2013-05-13 17:15:00
12:35 PM,85.6,42.1,22,30.21,10.0,SSW,10.4,16.1,N/A,,Clear,200,2013-05-13 17:35:00
12:55 PM,86.5,40.6,20,30.21,10.0,SW,11.5,19.6,N/A,,Clear,220,2013-05-13 17:55:00
1:15 PM,87.6,39.6,18,30.20,10.0,SSW,11.5,17.3,N/A,,Clear,210,2013-05-13 18:15:00
1:35 PM,88.3,38.7,17,30.20,10.0,WSW,13.8,21.9,N/A,,Clear,250,2013-05-13 18:35:00
1:55 PM,88.5,37.4,16,30.18,10.0,SW,4.6,10.4,N/A,,Clear,220,2013-05-13 18:55:00
2:15 PM,89.1,37.2,16,30.18,10.0,WSW,10.4,20.7,N/A,,Clear,240,2013-05-13 19:15:00
2:35 PM,89.8,36.3,15,30.18,10.0,SW,10.4,23.0,N/A,,Clear,220,2013-05-13 19:35:00
3:35 PM,90.0,35.2,14,30.16,10.0,SSW,11.5,-,N/A,,Clear,200,2013-05-13 20:35:00
3:55 PM,90.7,34.7,14,30.15,10.0,SW,11.5,25.3,N/A,,Clear,220,2013-05-13 20:55:00
4:15 PM,90.5,34.7,14,30.14,10.0,South,10.4,19.6,N/A,,Clear,190,2013-05-13 21:15:00
4:35 PM,90.7,34.5,14,30.13,10.0,SW,13.8,19.6,N/A,,Clear,220,2013-05-13 21:35:00
4:55 PM,90.1,34.7,14,30.13,10.0,South,13.8,-,N/A,,Clear,190,2013-05-13 21:55:00
5:15 PM,89.8,34.3,14,30.12,10.0,South,13.8,-,N/A,,Clear,170,2013-05-13 22:15:00
5:35 PM,89.8,34.7,14,30.12,10.0,South,15.0,20.7,N/A,,Clear,180,2013-05-13 22:35:00
5:55 PM,89.1,34.5,14,30.12,10.0,South,15.0,20.7,N/A,,Clear,190,2013-05-13 22:55:00
6:55 PM,87.6,33.3,14,30.11,10.0,SSW,11.5,17.3,N/A,,Clear,210,2013-05-13 23:55:00
7:15 PM,86.7,34.5,16,30.11,10.0,South,11.5,16.1,N/A,,Clear,180,2013-05-14 00:15:00
7:35 PM,85.1,37.2,18,30.11,10.0,South,10.4,-,N/A,,Clear,190,2013-05-14 00:35:00
7:55 PM,83.8,36.5,18,30.11,10.0,South,9.2,-,N/A,,Clear,180,2013-05-14 00:55:00
8:15 PM,81.7,36.5,20,30.12,10.0,South,9.2,-,N/A,,Clear,180,2013-05-14 01:15:00
8:35 PM,80.6,36.7,21,30.12,10.0,South,8.1,-,N/A,,Clear,170,2013-05-14 01:35:00
8:55 PM,79.0,37.8,23,30.13,10.0,SSE,6.9,-,N/A,,Clear,160,2013-05-14 01:55:00
9:15 PM,76.5,39.0,26,30.13,10.0,SSE,8.1,-,N/A,,Clear,160,2013-05-14 02:15:00
9:35 PM,74.5,40.1,29,30.15,10.0,SSE,9.2,-,N/A,,Clear,160,2013-05-14 02:35:00
9:55 PM,74.5,38.8,28,30.15,10.0,SSE,9.2,-,N/A,,Clear,160,2013-05-14 02:55:00
10:15 PM,73.4,38.5,28,30.15,10.0,SSE,9.2,-,N/A,,Clear,160,2013-05-14 03:15:00
10:35 PM,72.0,37.6,29,30.16,10.0,SSE,10.4,-,N/A,,Clear,150,2013-05-14 03:35:00
10:55 PM,72.0,37.4,28,30.16,10.0,SSE,10.4,-,N/A,,Clear,160,2013-05-14 03:55:00
11:15 PM,71.2,37.6,29,30.16,10.0,SSE,10.4,-,N/A,,Clear,160,2013-05-14 04:15:00
11:35 PM,70.7,38.3,31,30.16,10.0,SSE,11.5,-,N/A,,Clear,150,2013-05-14 04:35:00
11:55 PM,70.9,39.4,32,30.16,10.0,SSE,11.5,-,N/A,,Clear,160,2013-05-14 04:55:00